Time,TemperatureF,DewpointF,PressureIn,WindDirection,WindDirectionDegrees,WindSpeedMPH,WindSpeedGustMPH,Humidity,HourlyPrecipIn,Conditions,Clouds,dailyrainin,SoftwareType,DateUTC
2013-09-12 00:12:00,72.0,-99.9,-100.00,South,174,3.0,3.0,-999,-99.99,,,-99.99,,2013-09-12 07:12:00,
2013-09-12 02:12:00,69.0,-99.9,-100.00,ENE,77,1.0,3.0,-999,-99.99,,,-99.99,,2013-09-12 09:12:00,
2013-09-12 04:12:00,68.0,-99.9,-100.00,WNW,302,3.0,3.0,-999,-99.99,,,-99.99,,2013-09-12 11:12:00,
2013-09-12 05:12:00,62.0,-99.9,-100.00,SW,216,3.0,5.0,-999,-99.99,,,-99.99,,2013-09-12 12:12:00,
2013-09-12 06:11:00,63.0,-99.9,-100.00,SSW,201,2.0,3.0,-999,-99.99,,,-99.99,,2013-09-12 13:11:00,
2013-09-12 07:11:00,64.0,-99.9,-100.00,WNW,291,2.0,5.0,-999,-99.99,,,-99.99,,2013-09-12 14:11:00,
2013-09-12 08:11:00,62.0,-99.9,-100.00,SSE,156,2.0,3.0,-999,-99.99,,,-99.99,,2013-09-12 15:11:00,
2013-09-12 09:13:00,77.0,-99.9,-100.00,NNW,348,5.0,9.0,-999,-99.99,,,-99.99,,2013-09-12 16:13:00,
2013-09-12 10:12:00,81.0,-99.9,-100.00,North,353,6.0,9.0,-999,-99.99,,,-99.99,,2013-09-12 17:12:00,
2013-09-12 11:12:00,83.0,-99.9,-100.00,NNE,18,6.0,10.0,-999,-99.99,,,-99.99,,2013-09-12 18:12:00,
2013-09-12 12:12:00,87.0,-99.9,-100.00,North,1,6.0,12.0,-999,-99.99,,,-99.99,,2013-09-12 19:12:00,
2013-09-12 13:12:00,90.0,-99.9,-100.00,North,6,6.0,12.0,-999,-99.99,,,-99.99,,2013-09-12 20:12:00,
2013-09-12 15:13:00,94.0,-99.9,-100.00,North,353,6.0,12.0,-999,-99.99,,,-99.99,,2013-09-12 22:13:00,
2013-09-12 17:12:00,98.0,-99.9,-100.00,North,2,5.0,8.0,-999,-99.99,,,-99.99,,2013-09-13 00:12:00,
2013-09-12 18:11:00,97.0,-99.9,-100.00,NW,322,3.0,8.0,-999,-99.99,,,-99.99,,2013-09-13 01:11:00,
2013-09-12 19:12:00,93.0,-99.9,-100.00,WNW,288,3.0,5.0,-999,-99.99,,,-99.99,,2013-09-13 02:12:00,
2013-09-12 20:12:00,88.0,-99.9,-100.00,NNE,13,3.0,9.0,-999,-99.99,,,-99.99,,2013-09-13 03:12:00,
2013-09-12 20:15:00,77.0,-99.9,-100.00,ESE,121,5.0,6.0,-999,-99.99,,,-99.99,,2013-09-13 03:15:00,
2013-09-12 22:13:00,73.0,-99.9,-100.00,SE,142,3.0,5.0,-999,-99.99,,,-99.99,,2013-09-13 05:13:00,
2013-09-12 23:12:00,70.0,-99.9,-100.00,SE,131,5.0,7.0,-999,-99.99,,,-99.99,,2013-09-13 06:12:00,